Flag for U.S.A. Weather past 2 weeks in Fairbanks, Alaska, U.S.A.

Now
45 °F

Clear.


Feels Like: 40 °F
Forecast: 40 / 62 °F
Wind: 9 mph from East

Location: Wainwright U. S. Army Airfield

Current Time: Sep 17, 2014 at 12:42:07 AM

Latest Report: Sep 16, 2014 at 11:56 PM


Visibility: 10 mi

Pressure: 29.58 "Hg

Humidity: 74%

Dew point: 37 °F

Location of FairbanksLocation

Historic Weather in Fairbanks — Graph

°F

Fairbanks temperature yesterday

Maximum temperature yesterday: 61 °F (at 3:55 PM)
Minimum temperature yesterday: 39 °F (at 6:55 AM)
Average temperature yesterday: 50 °F

Past Weeks' High & Low Weather Summary

 TemperatureHumidityPressure
High76 °F (Sep 14, 5:56 PM)100% (Sep 2, 7:55 AM)30.14 "Hg (Sep 2, 7:55 AM)
Low28 °F (Sep 4, 6:55 AM)23% (Sep 6, 3:56 PM)29.50 "Hg (Sep 15, 2:55 PM)
Average51 °F59%29.88 "Hg
* Reported Sep 1 10:56 PM — Sep 16 10:56 PM, Fairbanks, Weather by CustomWeather, © 2014

Note: Actual official high and low records may vary slightly from our data, if they occured in-between our weather recording intervals... More about our weather records

Advertising

Fairbanks weather history for previous 24 hours

 ConditionsComfort  
Time TempWeatherWind HumidityBarometerVisibility
10:56 PM
Sep 16
46 °FClear.5 mph77%29.59 "Hg10 mi
9:56 PM47 °FClear.7 mph74%29.60 "Hg10 mi
8:55 PM48 °FScattered clouds.3 mph71%29.60 "Hg25 mi
7:55 PM54 °FScattered clouds.6 mph63%29.61 "Hg25 mi
6:55 PM59 °FBroken clouds.3 mph48%29.62 "Hg25 mi
5:55 PM61 °FBroken clouds.5 mph45%29.63 "Hg25 mi
4:55 PM61 °FBroken clouds.No wind45%29.64 "Hg25 mi
3:55 PM61 °FBroken clouds.No wind45%29.65 "Hg25 mi
2:55 PM59 °FBroken clouds.No wind48%29.67 "Hg25 mi
1:55 PM59 °FBroken clouds.No wind48%29.67 "Hg25 mi
12:55 PM57 °FBroken clouds.5 mph51%29.68 "Hg25 mi
11:55 AM54 °FBroken clouds.No wind58%29.67 "Hg25 mi
10:55 AM48 °FBroken clouds.No wind71%29.68 "Hg25 mi
9:55 AM45 °FBroken clouds.No wind76%29.67 "Hg25 mi
8:55 AM43 °FBroken clouds.6 mph81%29.66 "Hg25 mi
7:55 AM39 °FPartly cloudy.9 mph87%29.65 "Hg13 mi
6:55 AM39 °FPartly cloudy.5 mph87%29.65 "Hg13 mi
4:56 AM41 °FClear.No wind89%29.64 "Hg10 mi
3:56 AM43 °FPassing clouds.No wind82%29.64 "Hg10 mi
2:56 AM45 °FPassing clouds.No wind82%29.63 "Hg10 mi
1:56 AM48 °FPassing clouds.No wind83%29.63 "Hg10 mi
12:56 AM46 °FPassing clouds.No wind86%29.62 "Hg10 mi
Weather by CustomWeather, © 2014

See weather overviewHow to use our weather pages